Date Hour Ending, MW ,,,,,,,,,,,,,,,,,
04/01/2016 1:00,232,,,,,,,,,,,,,,,,,
04/01/2016 2:00,204,,,,,,,,,,,,,,,,,
04/01/2016 3:00,212,,,,,,,,,,,,,,,,,
04/01/2016 4:00,206,,,,,,,,,,,,,,,,,
04/01/2016 5:00,214,,,,,,,,,,,,,,,,,
04/01/2016 6:00,232,,,,,,,,,,,,,,,,,
04/01/2016 7:00,307,,,,,,,,,,,,,,,,,
04/01/2016 8:00,403,,,,,,,,,,,,,,,,,
04/01/2016 9:00,439,,,,,,,,,,,,,,,,,
04/01/2016 10:00,456,,,,,,,,,,,,,,,,,
04/01/2016 11:00,438,,,,,,,,,,,,,,,,,
04/01/2016 12:00,395,,,,,,,,,,,,,,,,,
04/01/2016 13:00,384,,,,,,,,,,,,,,,,,
04/01/2016 14:00,373,,,,,,,,,,,,,,,,,
04/01/2016 15:00,367,,,,,,,,,,,,,,,,,
04/01/2016 16:00,370,,,,,,,,,,,,,,,,,
04/01/2016 17:00,376,,,,,,,,,,,,,,,,,
04/01/2016 18:00,389,,,,,,,,,,,,,,,,,
04/01/2016 19:00,356,,,,,,,,,,,,,,,,,
04/01/2016 20:00,333,,,,,,,,,,,,,,,,,
04/01/2016 21:00,354,,,,,,,,,,,,,,,,,
04/01/2016 22:00,338,,,,,,,,,,,,,,,,,
04/01/2016 23:00,304,,,,,,,,,,,,,,,,,
04/02/2016 0:00,237,,,,,,,,,,,,,,,,,
04/02/2016 1:00,256,,,,,,,,,,,,,,,,,
04/02/2016 2:00,247,,,,,,,,,,,,,,,,,
04/02/2016 3:00,240,,,,,,,,,,,,,,,,,
04/02/2016 4:00,274,,,,,,,,,,,,,,,,,
04/02/2016 5:00,304,,,,,,,,,,,,,,,,,
04/02/2016 6:00,334,,,,,,,,,,,,,,,,,
04/02/2016 7:00,343,,,,,,,,,,,,,,,,,
04/02/2016 8:00,393,,,,,,,,,,,,,,,,,
04/02/2016 9:00,453,,,,,,,,,,,,,,,,,
04/02/2016 10:00,493,,,,,,,,,,,,,,,,,
04/02/2016 11:00,515,,,,,,,,,,,,,,,,,
04/02/2016 12:00,522,,,,,,,,,,,,,,,,,
04/02/2016 13:00,498,,,,,,,,,,,,,,,,,
04/02/2016 14:00,481,,,,,,,,,,,,,,,,,
04/02/2016 15:00,446,,,,,,,,,,,,,,,,,
04/02/2016 16:00,445,,,,,,,,,,,,,,,,,
04/02/2016 17:00,479,,,,,,,,,,,,,,,,,
04/02/2016 18:00,491,,,,,,,,,,,,,,,,,
04/02/2016 19:00,503,,,,,,,,,,,,,,,,,
04/02/2016 20:00,488,,,,,,,,,,,,,,,,,
04/02/2016 21:00,480,,,,,,,,,,,,,,,,,
04/02/2016 22:00,465,,,,,,,,,,,,,,,,,
04/02/2016 23:00,442,,,,,,,,,,,,,,,,,
04/03/2016 0:00,413,,,,,,,,,,,,,,,,,
04/03/2016 1:00,357,,,,,,,,,,,,,,,,,
04/03/2016 2:00,333,,,,,,,,,,,,,,,,,
04/03/2016 3:00,328,,,,,,,,,,,,,,,,,
04/03/2016 4:00,330,,,,,,,,,,,,,,,,,
04/03/2016 5:00,326,,,,,,,,,,,,,,,,,
04/03/2016 6:00,324,,,,,,,,,,,,,,,,,
04/03/2016 7:00,345,,,,,,,,,,,,,,,,,
04/03/2016 8:00,374,,,,,,,,,,,,,,,,,
04/03/2016 9:00,380,,,,,,,,,,,,,,,,,
04/03/2016 10:00,332,,,,,,,,,,,,,,,,,
04/03/2016 11:00,392,,,,,,,,,,,,,,,,,
04/03/2016 12:00,359,,,,,,,,,,,,,,,,,
04/03/2016 13:00,349,,,,,,,,,,,,,,,,,
04/03/2016 14:00,380,,,,,,,,,,,,,,,,,
04/03/2016 15:00,355,,,,,,,,,,,,,,,,,
04/03/2016 16:00,347,,,,,,,,,,,,,,,,,
04/03/2016 17:00,369,,,,,,,,,,,,,,,,,
04/03/2016 18:00,399,,,,,,,,,,,,,,,,,
04/03/2016 19:00,406,,,,,,,,,,,,,,,,,
04/03/2016 20:00,435,,,,,,,,,,,,,,,,,
04/03/2016 21:00,456,,,,,,,,,,,,,,,,,
04/03/2016 22:00,438,,,,,,,,,,,,,,,,,
04/03/2016 23:00,367,,,,,,,,,,,,,,,,,
04/04/2016 0:00,308,,,,,,,,,,,,,,,,,
04/04/2016 1:00,290,,,,,,,,,,,,,,,,,
04/04/2016 2:00,266,,,,,,,,,,,,,,,,,
04/04/2016 3:00,269,,,,,,,,,,,,,,,,,
04/04/2016 4:00,297,,,,,,,,,,,,,,,,,
04/04/2016 5:00,322,,,,,,,,,,,,,,,,,
04/04/2016 6:00,377,,,,,,,,,,,,,,,,,
04/04/2016 7:00,480,,,,,,,,,,,,,,,,,
04/04/2016 8:00,465,,,,,,,,,,,,,,,,,
04/04/2016 9:00,518,,,,,,,,,,,,,,,,,
04/04/2016 10:00,513,,,,,,,,,,,,,,,,,
04/04/2016 11:00,490,,,,,,,,,,,,,,,,,
04/04/2016 12:00,484,,,,,,,,,,,,,,,,,
04/04/2016 13:00,478,,,,,,,,,,,,,,,,,
04/04/2016 14:00,469,,,,,,,,,,,,,,,,,
04/04/2016 15:00,435,,,,,,,,,,,,,,,,,
04/04/2016 16:00,436,,,,,,,,,,,,,,,,,
04/04/2016 17:00,479,,,,,,,,,,,,,,,,,
04/04/2016 18:00,533,,,,,,,,,,,,,,,,,
04/04/2016 19:00,557,,,,,,,,,,,,,,,,,
04/04/2016 20:00,551,,,,,,,,,,,,,,,,,
04/04/2016 21:00,493,,,,,,,,,,,,,,,,,
04/04/2016 22:00,495,,,,,,,,,,,,,,,,,
04/04/2016 23:00,452,,,,,,,,,,,,,,,,,
04/05/2016 0:00,447,,,,,,,,,,,,,,,,,
04/05/2016 1:00,444,,,,,,,,,,,,,,,,,
04/05/2016 2:00,419,,,,,,,,,,,,,,,,,
04/05/2016 3:00,395,,,,,,,,,,,,,,,,,
04/05/2016 4:00,355,,,,,,,,,,,,,,,,,
04/05/2016 5:00,341,,,,,,,,,,,,,,,,,
04/05/2016 6:00,361,,,,,,,,,,,,,,,,,
04/05/2016 7:00,421,,,,,,,,,,,,,,,,,
04/05/2016 8:00,466,,,,,,,,,,,,,,,,,
04/05/2016 9:00,482,,,,,,,,,,,,,,,,,
04/05/2016 10:00,479,,,,,,,,,,,,,,,,,
04/05/2016 11:00,496,,,,,,,,,,,,,,,,,
04/05/2016 12:00,459,,,,,,,,,,,,,,,,,
04/05/2016 13:00,411,,,,,,,,,,,,,,,,,
04/05/2016 14:00,392,,,,,,,,,,,,,,,,,
04/05/2016 15:00,360,,,,,,,,,,,,,,,,,
04/05/2016 16:00,342,,,,,,,,,,,,,,,,,
04/05/2016 17:00,333,,,,,,,,,,,,,,,,,
04/05/2016 18:00,348,,,,,,,,,,,,,,,,,
04/05/2016 19:00,351,,,,,,,,,,,,,,,,,
04/05/2016 20:00,360,,,,,,,,,,,,,,,,,
04/05/2016 21:00,414,,,,,,,,,,,,,,,,,
04/05/2016 22:00,403,,,,,,,,,,,,,,,,,
04/05/2016 23:00,374,,,,,,,,,,,,,,,,,
04/06/2016 0:00,374,,,,,,,,,,,,,,,,,
04/06/2016 1:00,343,,,,,,,,,,,,,,,,,
04/06/2016 2:00,334,,,,,,,,,,,,,,,,,
04/06/2016 3:00,300,,,,,,,,,,,,,,,,,
04/06/2016 4:00,269,,,,,,,,,,,,,,,,,
04/06/2016 5:00,306,,,,,,,,,,,,,,,,,
04/06/2016 6:00,343,,,,,,,,,,,,,,,,,
04/06/2016 7:00,411,,,,,,,,,,,,,,,,,
04/06/2016 8:00,453,,,,,,,,,,,,,,,,,
04/06/2016 9:00,422,,,,,,,,,,,,,,,,,
04/06/2016 10:00,401,,,,,,,,,,,,,,,,,
04/06/2016 11:00,403,,,,,,,,,,,,,,,,,
04/06/2016 12:00,420,,,,,,,,,,,,,,,,,
04/06/2016 13:00,396,,,,,,,,,,,,,,,,,
04/06/2016 14:00,373,,,,,,,,,,,,,,,,,
04/06/2016 15:00,363,,,,,,,,,,,,,,,,,
04/06/2016 16:00,342,,,,,,,,,,,,,,,,,
04/06/2016 17:00,383,,,,,,,,,,,,,,,,,
04/06/2016 18:00,363,,,,,,,,,,,,,,,,,
04/06/2016 19:00,359,,,,,,,,,,,,,,,,,
04/06/2016 20:00,401,,,,,,,,,,,,,,,,,
04/06/2016 21:00,421,,,,,,,,,,,,,,,,,
04/06/2016 22:00,423,,,,,,,,,,,,,,,,,
04/06/2016 23:00,376,,,,,,,,,,,,,,,,,
04/07/2016 0:00,350,,,,,,,,,,,,,,,,,
04/07/2016 1:00,394,,,,,,,,,,,,,,,,,
04/07/2016 2:00,374,,,,,,,,,,,,,,,,,
04/07/2016 3:00,342,,,,,,,,,,,,,,,,,
04/07/2016 4:00,316,,,,,,,,,,,,,,,,,
04/07/2016 5:00,290,,,,,,,,,,,,,,,,,
04/07/2016 6:00,294,,,,,,,,,,,,,,,,,
04/07/2016 7:00,368,,,,,,,,,,,,,,,,,
04/07/2016 8:00,443,,,,,,,,,,,,,,,,,
04/07/2016 9:00,473,,,,,,,,,,,,,,,,,
04/07/2016 10:00,471,,,,,,,,,,,,,,,,,
04/07/2016 11:00,475,,,,,,,,,,,,,,,,,
04/07/2016 12:00,434,,,,,,,,,,,,,,,,,
04/07/2016 13:00,393,,,,,,,,,,,,,,,,,
04/07/2016 14:00,362,,,,,,,,,,,,,,,,,
04/07/2016 15:00,337,,,,,,,,,,,,,,,,,
04/07/2016 16:00,319,,,,,,,,,,,,,,,,,
04/07/2016 17:00,319,,,,,,,,,,,,,,,,,
04/07/2016 18:00,321,,,,,,,,,,,,,,,,,
04/07/2016 19:00,318,,,,,,,,,,,,,,,,,
04/07/2016 20:00,335,,,,,,,,,,,,,,,,,
04/07/2016 21:00,362,,,,,,,,,,,,,,,,,
04/07/2016 22:00,332,,,,,,,,,,,,,,,,,
04/07/2016 23:00,294,,,,,,,,,,,,,,,,,
04/08/2016 0:00,283,,,,,,,,,,,,,,,,,
04/08/2016 1:00,284,,,,,,,,,,,,,,,,,
04/08/2016 2:00,307,,,,,,,,,,,,,,,,,
04/08/2016 3:00,290,,,,,,,,,,,,,,,,,
04/08/2016 4:00,267,,,,,,,,,,,,,,,,,
04/08/2016 5:00,288,,,,,,,,,,,,,,,,,
04/08/2016 6:00,307,,,,,,,,,,,,,,,,,
04/08/2016 7:00,381,,,,,,,,,,,,,,,,,
04/08/2016 8:00,441,,,,,,,,,,,,,,,,,
04/08/2016 9:00,442,,,,,,,,,,,,,,,,,
04/08/2016 10:00,408,,,,,,,,,,,,,,,,,
04/08/2016 11:00,401,,,,,,,,,,,,,,,,,
04/08/2016 12:00,399,,,,,,,,,,,,,,,,,
04/08/2016 13:00,394,,,,,,,,,,,,,,,,,
04/08/2016 14:00,385,,,,,,,,,,,,,,,,,
04/08/2016 15:00,371,,,,,,,,,,,,,,,,,
04/08/2016 16:00,358,,,,,,,,,,,,,,,,,
04/08/2016 17:00,375,,,,,,,,,,,,,,,,,
04/08/2016 18:00,352,,,,,,,,,,,,,,,,,
04/08/2016 19:00,378,,,,,,,,,,,,,,,,,
04/08/2016 20:00,408,,,,,,,,,,,,,,,,,
04/08/2016 21:00,400,,,,,,,,,,,,,,,,,
04/08/2016 22:00,374,,,,,,,,,,,,,,,,,
04/08/2016 23:00,331,,,,,,,,,,,,,,,,,
04/09/2016 0:00,339,,,,,,,,,,,,,,,,,
04/09/2016 1:00,345,,,,,,,,,,,,,,,,,
04/09/2016 2:00,297,,,,,,,,,,,,,,,,,
04/09/2016 3:00,310,,,,,,,,,,,,,,,,,
04/09/2016 4:00,326,,,,,,,,,,,,,,,,,
04/09/2016 5:00,353,,,,,,,,,,,,,,,,,
04/09/2016 6:00,328,,,,,,,,,,,,,,,,,
04/09/2016 7:00,345,,,,,,,,,,,,,,,,,
04/09/2016 8:00,399,,,,,,,,,,,,,,,,,
04/09/2016 9:00,460,,,,,,,,,,,,,,,,,
04/09/2016 10:00,503,,,,,,,,,,,,,,,,,
04/09/2016 11:00,476,,,,,,,,,,,,,,,,,
04/09/2016 12:00,405,,,,,,,,,,,,,,,,,
04/09/2016 13:00,336,,,,,,,,,,,,,,,,,
04/09/2016 14:00,293,,,,,,,,,,,,,,,,,
04/09/2016 15:00,301,,,,,,,,,,,,,,,,,
04/09/2016 16:00,315,,,,,,,,,,,,,,,,,
04/09/2016 17:00,351,,,,,,,,,,,,,,,,,
04/09/2016 18:00,376,,,,,,,,,,,,,,,,,
04/09/2016 19:00,371,,,,,,,,,,,,,,,,,
04/09/2016 20:00,395,,,,,,,,,,,,,,,,,
04/09/2016 21:00,437,,,,,,,,,,,,,,,,,
04/09/2016 22:00,439,,,,,,,,,,,,,,,,,
04/09/2016 23:00,392,,,,,,,,,,,,,,,,,
04/10/2016 0:00,333,,,,,,,,,,,,,,,,,
04/10/2016 1:00,264,,,,,,,,,,,,,,,,,
04/10/2016 2:00,245,,,,,,,,,,,,,,,,,
04/10/2016 3:00,192,,,,,,,,,,,,,,,,,
04/10/2016 4:00,179,,,,,,,,,,,,,,,,,
04/10/2016 5:00,184,,,,,,,,,,,,,,,,,
04/10/2016 6:00,187,,,,,,,,,,,,,,,,,
04/10/2016 7:00,223,,,,,,,,,,,,,,,,,
04/10/2016 8:00,228,,,,,,,,,,,,,,,,,
04/10/2016 9:00,282,,,,,,,,,,,,,,,,,
04/10/2016 10:00,358,,,,,,,,,,,,,,,,,
04/10/2016 11:00,400,,,,,,,,,,,,,,,,,
04/10/2016 12:00,410,,,,,,,,,,,,,,,,,
04/10/2016 13:00,404,,,,,,,,,,,,,,,,,
04/10/2016 14:00,385,,,,,,,,,,,,,,,,,
04/10/2016 15:00,344,,,,,,,,,,,,,,,,,
04/10/2016 16:00,324,,,,,,,,,,,,,,,,,
04/10/2016 17:00,335,,,,,,,,,,,,,,,,,
04/10/2016 18:00,349,,,,,,,,,,,,,,,,,
04/10/2016 19:00,353,,,,,,,,,,,,,,,,,
04/10/2016 20:00,392,,,,,,,,,,,,,,,,,
04/10/2016 21:00,447,,,,,,,,,,,,,,,,,
04/10/2016 22:00,402,,,,,,,,,,,,,,,,,
04/10/2016 23:00,361,,,,,,,,,,,,,,,,,
04/11/2016 0:00,308,,,,,,,,,,,,,,,,,
04/11/2016 1:00,282,,,,,,,,,,,,,,,,,
04/11/2016 2:00,287,,,,,,,,,,,,,,,,,
04/11/2016 3:00,303,,,,,,,,,,,,,,,,,
04/11/2016 4:00,301,,,,,,,,,,,,,,,,,
04/11/2016 5:00,329,,,,,,,,,,,,,,,,,
04/11/2016 6:00,381,,,,,,,,,,,,,,,,,
04/11/2016 7:00,450,,,,,,,,,,,,,,,,,
04/11/2016 8:00,473,,,,,,,,,,,,,,,,,
04/11/2016 9:00,447,,,,,,,,,,,,,,,,,
04/11/2016 10:00,482,,,,,,,,,,,,,,,,,
04/11/2016 11:00,455,,,,,,,,,,,,,,,,,
04/11/2016 12:00,444,,,,,,,,,,,,,,,,,
04/11/2016 13:00,431,,,,,,,,,,,,,,,,,
04/11/2016 14:00,399,,,,,,,,,,,,,,,,,
04/11/2016 15:00,361,,,,,,,,,,,,,,,,,
04/11/2016 16:00,346,,,,,,,,,,,,,,,,,
04/11/2016 17:00,352,,,,,,,,,,,,,,,,,
04/11/2016 18:00,411,,,,,,,,,,,,,,,,,
04/11/2016 19:00,409,,,,,,,,,,,,,,,,,
04/11/2016 20:00,393,,,,,,,,,,,,,,,,,
04/11/2016 21:00,361,,,,,,,,,,,,,,,,,
04/11/2016 22:00,306,,,,,,,,,,,,,,,,,
04/11/2016 23:00,260,,,,,,,,,,,,,,,,,
04/12/2016 0:00,224,,,,,,,,,,,,,,,,,
04/12/2016 1:00,196,,,,,,,,,,,,,,,,,
04/12/2016 2:00,167,,,,,,,,,,,,,,,,,
04/12/2016 3:00,156,,,,,,,,,,,,,,,,,
04/12/2016 4:00,160,,,,,,,,,,,,,,,,,
04/12/2016 5:00,170,,,,,,,,,,,,,,,,,
04/12/2016 6:00,241,,,,,,,,,,,,,,,,,
04/12/2016 7:00,332,,,,,,,,,,,,,,,,,
04/12/2016 8:00,329,,,,,,,,,,,,,,,,,
04/12/2016 9:00,314,,,,,,,,,,,,,,,,,
04/12/2016 10:00,302,,,,,,,,,,,,,,,,,
04/12/2016 11:00,289,,,,,,,,,,,,,,,,,
04/12/2016 12:00,340,,,,,,,,,,,,,,,,,
04/12/2016 13:00,346,,,,,,,,,,,,,,,,,
04/12/2016 14:00,310,,,,,,,,,,,,,,,,,
04/12/2016 15:00,320,,,,,,,,,,,,,,,,,
04/12/2016 16:00,321,,,,,,,,,,,,,,,,,
04/12/2016 17:00,348,,,,,,,,,,,,,,,,,
04/12/2016 18:00,355,,,,,,,,,,,,,,,,,
04/12/2016 19:00,335,,,,,,,,,,,,,,,,,
04/12/2016 20:00,289,,,,,,,,,,,,,,,,,
04/12/2016 21:00,311,,,,,,,,,,,,,,,,,
04/12/2016 22:00,294,,,,,,,,,,,,,,,,,
04/12/2016 23:00,248,,,,,,,,,,,,,,,,,
04/13/2016 0:00,261,,,,,,,,,,,,,,,,,
04/13/2016 1:00,269,,,,,,,,,,,,,,,,,
04/13/2016 2:00,253,,,,,,,,,,,,,,,,,
04/13/2016 3:00,236,,,,,,,,,,,,,,,,,
04/13/2016 4:00,309,,,,,,,,,,,,,,,,,
04/13/2016 5:00,338,,,,,,,,,,,,,,,,,
04/13/2016 6:00,304,,,,,,,,,,,,,,,,,
04/13/2016 7:00,306,,,,,,,,,,,,,,,,,
04/13/2016 8:00,353,,,,,,,,,,,,,,,,,
04/13/2016 9:00,382,,,,,,,,,,,,,,,,,
04/13/2016 10:00,401,,,,,,,,,,,,,,,,,
04/13/2016 11:00,359,,,,,,,,,,,,,,,,,
04/13/2016 12:00,377,,,,,,,,,,,,,,,,,
04/13/2016 13:00,380,,,,,,,,,,,,,,,,,
04/13/2016 14:00,373,,,,,,,,,,,,,,,,,
04/13/2016 15:00,434,,,,,,,,,,,,,,,,,
04/13/2016 16:00,445,,,,,,,,,,,,,,,,,
04/13/2016 17:00,452,,,,,,,,,,,,,,,,,
04/13/2016 18:00,452,,,,,,,,,,,,,,,,,
04/13/2016 19:00,431,,,,,,,,,,,,,,,,,
04/13/2016 20:00,433,,,,,,,,,,,,,,,,,
04/13/2016 21:00,459,,,,,,,,,,,,,,,,,
04/13/2016 22:00,436,,,,,,,,,,,,,,,,,
04/13/2016 23:00,400,,,,,,,,,,,,,,,,,
04/14/2016 0:00,386,,,,,,,,,,,,,,,,,
04/14/2016 1:00,373,,,,,,,,,,,,,,,,,
04/14/2016 2:00,350,,,,,,,,,,,,,,,,,
04/14/2016 3:00,315,,,,,,,,,,,,,,,,,
04/14/2016 4:00,306,,,,,,,,,,,,,,,,,
04/14/2016 5:00,318,,,,,,,,,,,,,,,,,
04/14/2016 6:00,318,,,,,,,,,,,,,,,,,
04/14/2016 7:00,364,,,,,,,,,,,,,,,,,
04/14/2016 8:00,456,,,,,,,,,,,,,,,,,
04/14/2016 9:00,495,,,,,,,,,,,,,,,,,
04/14/2016 10:00,501,,,,,,,,,,,,,,,,,
04/14/2016 11:00,454,,,,,,,,,,,,,,,,,
04/14/2016 12:00,438,,,,,,,,,,,,,,,,,
04/14/2016 13:00,398,,,,,,,,,,,,,,,,,
04/14/2016 14:00,378,,,,,,,,,,,,,,,,,
04/14/2016 15:00,359,,,,,,,,,,,,,,,,,
04/14/2016 16:00,358,,,,,,,,,,,,,,,,,
04/14/2016 17:00,362,,,,,,,,,,,,,,,,,
04/14/2016 18:00,405,,,,,,,,,,,,,,,,,
04/14/2016 19:00,403,,,,,,,,,,,,,,,,,
04/14/2016 20:00,397,,,,,,,,,,,,,,,,,
04/14/2016 21:00,426,,,,,,,,,,,,,,,,,
04/14/2016 22:00,376,,,,,,,,,,,,,,,,,
04/14/2016 23:00,293,,,,,,,,,,,,,,,,,
04/15/2016 0:00,281,,,,,,,,,,,,,,,,,
04/15/2016 1:00,312,,,,,,,,,,,,,,,,,
04/15/2016 2:00,287,,,,,,,,,,,,,,,,,
04/15/2016 3:00,278,,,,,,,,,,,,,,,,,
04/15/2016 4:00,279,,,,,,,,,,,,,,,,,
04/15/2016 5:00,288,,,,,,,,,,,,,,,,,
04/15/2016 6:00,267,,,,,,,,,,,,,,,,,
04/15/2016 7:00,340,,,,,,,,,,,,,,,,,
04/15/2016 8:00,379,,,,,,,,,,,,,,,,,
04/15/2016 9:00,406,,,,,,,,,,,,,,,,,
04/15/2016 10:00,410,,,,,,,,,,,,,,,,,
04/15/2016 11:00,405,,,,,,,,,,,,,,,,,
04/15/2016 12:00,403,,,,,,,,,,,,,,,,,
04/15/2016 13:00,395,,,,,,,,,,,,,,,,,
04/15/2016 14:00,388,,,,,,,,,,,,,,,,,
04/15/2016 15:00,383,,,,,,,,,,,,,,,,,
04/15/2016 16:00,376,,,,,,,,,,,,,,,,,
04/15/2016 17:00,381,,,,,,,,,,,,,,,,,
04/15/2016 18:00,390,,,,,,,,,,,,,,,,,
04/15/2016 19:00,378,,,,,,,,,,,,,,,,,
04/15/2016 20:00,388,,,,,,,,,,,,,,,,,
04/15/2016 21:00,411,,,,,,,,,,,,,,,,,
04/15/2016 22:00,382,,,,,,,,,,,,,,,,,
04/15/2016 23:00,338,,,,,,,,,,,,,,,,,
04/16/2016 0:00,337,,,,,,,,,,,,,,,,,
04/16/2016 1:00,324,,,,,,,,,,,,,,,,,
04/16/2016 2:00,307,,,,,,,,,,,,,,,,,
04/16/2016 3:00,300,,,,,,,,,,,,,,,,,
04/16/2016 4:00,297,,,,,,,,,,,,,,,,,
04/16/2016 5:00,301,,,,,,,,,,,,,,,,,
04/16/2016 6:00,317,,,,,,,,,,,,,,,,,
04/16/2016 7:00,347,,,,,,,,,,,,,,,,,
04/16/2016 8:00,413,,,,,,,,,,,,,,,,,
04/16/2016 9:00,463,,,,,,,,,,,,,,,,,
04/16/2016 10:00,418,,,,,,,,,,,,,,,,,
04/16/2016 11:00,397,,,,,,,,,,,,,,,,,
04/16/2016 12:00,387,,,,,,,,,,,,,,,,,
04/16/2016 13:00,365,,,,,,,,,,,,,,,,,
04/16/2016 14:00,344,,,,,,,,,,,,,,,,,
04/16/2016 15:00,328,,,,,,,,,,,,,,,,,
04/16/2016 16:00,330,,,,,,,,,,,,,,,,,
04/16/2016 17:00,340,,,,,,,,,,,,,,,,,
04/16/2016 18:00,354,,,,,,,,,,,,,,,,,
04/16/2016 19:00,357,,,,,,,,,,,,,,,,,
04/16/2016 20:00,324,,,,,,,,,,,,,,,,,
04/16/2016 21:00,351,,,,,,,,,,,,,,,,,
04/16/2016 22:00,326,,,,,,,,,,,,,,,,,
04/16/2016 23:00,297,,,,,,,,,,,,,,,,,
04/17/2016 0:00,305,,,,,,,,,,,,,,,,,
04/17/2016 1:00,286,,,,,,,,,,,,,,,,,
04/17/2016 2:00,272,,,,,,,,,,,,,,,,,
04/17/2016 3:00,303,,,,,,,,,,,,,,,,,
04/17/2016 4:00,352,,,,,,,,,,,,,,,,,
04/17/2016 5:00,363,,,,,,,,,,,,,,,,,
04/17/2016 6:00,386,,,,,,,,,,,,,,,,,
04/17/2016 7:00,416,,,,,,,,,,,,,,,,,
04/17/2016 8:00,463,,,,,,,,,,,,,,,,,
04/17/2016 9:00,493,,,,,,,,,,,,,,,,,
04/17/2016 10:00,507,,,,,,,,,,,,,,,,,
04/17/2016 11:00,520,,,,,,,,,,,,,,,,,
04/17/2016 12:00,489,,,,,,,,,,,,,,,,,
04/17/2016 13:00,433,,,,,,,,,,,,,,,,,
04/17/2016 14:00,395,,,,,,,,,,,,,,,,,
04/17/2016 15:00,364,,,,,,,,,,,,,,,,,
04/17/2016 16:00,355,,,,,,,,,,,,,,,,,
04/17/2016 17:00,379,,,,,,,,,,,,,,,,,
04/17/2016 18:00,396,,,,,,,,,,,,,,,,,
04/17/2016 19:00,394,,,,,,,,,,,,,,,,,
04/17/2016 20:00,415,,,,,,,,,,,,,,,,,
04/17/2016 21:00,442,,,,,,,,,,,,,,,,,
04/17/2016 22:00,448,,,,,,,,,,,,,,,,,
04/17/2016 23:00,381,,,,,,,,,,,,,,,,,
04/18/2016 0:00,326,,,,,,,,,,,,,,,,,
04/18/2016 1:00,285,,,,,,,,,,,,,,,,,
04/18/2016 2:00,231,,,,,,,,,,,,,,,,,
04/18/2016 3:00,210,,,,,,,,,,,,,,,,,
04/18/2016 4:00,235,,,,,,,,,,,,,,,,,
04/18/2016 5:00,245,,,,,,,,,,,,,,,,,
04/18/2016 6:00,264,,,,,,,,,,,,,,,,,
04/18/2016 7:00,299,,,,,,,,,,,,,,,,,
04/18/2016 8:00,388,,,,,,,,,,,,,,,,,
04/18/2016 9:00,417,,,,,,,,,,,,,,,,,
04/18/2016 10:00,439,,,,,,,,,,,,,,,,,
04/18/2016 11:00,401,,,,,,,,,,,,,,,,,
04/18/2016 12:00,378,,,,,,,,,,,,,,,,,
04/18/2016 13:00,374,,,,,,,,,,,,,,,,,
04/18/2016 14:00,333,,,,,,,,,,,,,,,,,
04/18/2016 15:00,333,,,,,,,,,,,,,,,,,
04/18/2016 16:00,334,,,,,,,,,,,,,,,,,
04/18/2016 17:00,359,,,,,,,,,,,,,,,,,
04/18/2016 18:00,381,,,,,,,,,,,,,,,,,
04/18/2016 19:00,373,,,,,,,,,,,,,,,,,
04/18/2016 20:00,382,,,,,,,,,,,,,,,,,
04/18/2016 21:00,408,,,,,,,,,,,,,,,,,
04/18/2016 22:00,410,,,,,,,,,,,,,,,,,
04/18/2016 23:00,379,,,,,,,,,,,,,,,,,
04/19/2016 0:00,360,,,,,,,,,,,,,,,,,
04/19/2016 1:00,302,,,,,,,,,,,,,,,,,
04/19/2016 2:00,315,,,,,,,,,,,,,,,,,
04/19/2016 3:00,309,,,,,,,,,,,,,,,,,
04/19/2016 4:00,336,,,,,,,,,,,,,,,,,
04/19/2016 5:00,350,,,,,,,,,,,,,,,,,
04/19/2016 6:00,366,,,,,,,,,,,,,,,,,
04/19/2016 7:00,441,,,,,,,,,,,,,,,,,
04/19/2016 8:00,530,,,,,,,,,,,,,,,,,
04/19/2016 9:00,549,,,,,,,,,,,,,,,,,
04/19/2016 10:00,528,,,,,,,,,,,,,,,,,
04/19/2016 11:00,510,,,,,,,,,,,,,,,,,
04/19/2016 12:00,521,,,,,,,,,,,,,,,,,
04/19/2016 13:00,511,,,,,,,,,,,,,,,,,
04/19/2016 14:00,482,,,,,,,,,,,,,,,,,
04/19/2016 15:00,450,,,,,,,,,,,,,,,,,
04/19/2016 16:00,427,,,,,,,,,,,,,,,,,
04/19/2016 17:00,440,,,,,,,,,,,,,,,,,
04/19/2016 18:00,450,,,,,,,,,,,,,,,,,
04/19/2016 19:00,446,,,,,,,,,,,,,,,,,
04/19/2016 20:00,475,,,,,,,,,,,,,,,,,
04/19/2016 21:00,497,,,,,,,,,,,,,,,,,
04/19/2016 22:00,453,,,,,,,,,,,,,,,,,
04/19/2016 23:00,462,,,,,,,,,,,,,,,,,
04/20/2016 0:00,422,,,,,,,,,,,,,,,,,
04/20/2016 1:00,379,,,,,,,,,,,,,,,,,
04/20/2016 2:00,350,,,,,,,,,,,,,,,,,
04/20/2016 3:00,333,,,,,,,,,,,,,,,,,
04/20/2016 4:00,321,,,,,,,,,,,,,,,,,
04/20/2016 5:00,320,,,,,,,,,,,,,,,,,
04/20/2016 6:00,356,,,,,,,,,,,,,,,,,
04/20/2016 7:00,387,,,,,,,,,,,,,,,,,
04/20/2016 8:00,482,,,,,,,,,,,,,,,,,
04/20/2016 9:00,493,,,,,,,,,,,,,,,,,
04/20/2016 10:00,451,,,,,,,,,,,,,,,,,
04/20/2016 11:00,402,,,,,,,,,,,,,,,,,
04/20/2016 12:00,324,,,,,,,,,,,,,,,,,
04/20/2016 13:00,281,,,,,,,,,,,,,,,,,
04/20/2016 14:00,261,,,,,,,,,,,,,,,,,
04/20/2016 15:00,265,,,,,,,,,,,,,,,,,
04/20/2016 16:00,272,,,,,,,,,,,,,,,,,
04/20/2016 17:00,275,,,,,,,,,,,,,,,,,
04/20/2016 18:00,258,,,,,,,,,,,,,,,,,
04/20/2016 19:00,247,,,,,,,,,,,,,,,,,
04/20/2016 20:00,264,,,,,,,,,,,,,,,,,
04/20/2016 21:00,327,,,,,,,,,,,,,,,,,
04/20/2016 22:00,343,,,,,,,,,,,,,,,,,
04/20/2016 23:00,384,,,,,,,,,,,,,,,,,
04/21/2016 0:00,456,,,,,,,,,,,,,,,,,
04/21/2016 1:00,436,,,,,,,,,,,,,,,,,
04/21/2016 2:00,375,,,,,,,,,,,,,,,,,
04/21/2016 3:00,319,,,,,,,,,,,,,,,,,
04/21/2016 4:00,295,,,,,,,,,,,,,,,,,
04/21/2016 5:00,313,,,,,,,,,,,,,,,,,
04/21/2016 6:00,353,,,,,,,,,,,,,,,,,
04/21/2016 7:00,415,,,,,,,,,,,,,,,,,
04/21/2016 8:00,491,,,,,,,,,,,,,,,,,
04/21/2016 9:00,514,,,,,,,,,,,,,,,,,
04/21/2016 10:00,467,,,,,,,,,,,,,,,,,
04/21/2016 11:00,426,,,,,,,,,,,,,,,,,
04/21/2016 12:00,421,,,,,,,,,,,,,,,,,
04/21/2016 13:00,387,,,,,,,,,,,,,,,,,
04/21/2016 14:00,351,,,,,,,,,,,,,,,,,
04/21/2016 15:00,306,,,,,,,,,,,,,,,,,
04/21/2016 16:00,287,,,,,,,,,,,,,,,,,
04/21/2016 17:00,299,,,,,,,,,,,,,,,,,
04/21/2016 18:00,309,,,,,,,,,,,,,,,,,
04/21/2016 19:00,292,,,,,,,,,,,,,,,,,
04/21/2016 20:00,324,,,,,,,,,,,,,,,,,
04/21/2016 21:00,358,,,,,,,,,,,,,,,,,
04/21/2016 22:00,368,,,,,,,,,,,,,,,,,
04/21/2016 23:00,318,,,,,,,,,,,,,,,,,
04/22/2016 0:00,305,,,,,,,,,,,,,,,,,
04/22/2016 1:00,290,,,,,,,,,,,,,,,,,
04/22/2016 2:00,268,,,,,,,,,,,,,,,,,
04/22/2016 3:00,272,,,,,,,,,,,,,,,,,
04/22/2016 4:00,271,,,,,,,,,,,,,,,,,
04/22/2016 5:00,301,,,,,,,,,,,,,,,,,
04/22/2016 6:00,359,,,,,,,,,,,,,,,,,
04/22/2016 7:00,424,,,,,,,,,,,,,,,,,
04/22/2016 8:00,465,,,,,,,,,,,,,,,,,
04/22/2016 9:00,486,,,,,,,,,,,,,,,,,
04/22/2016 10:00,488,,,,,,,,,,,,,,,,,
04/22/2016 11:00,469,,,,,,,,,,,,,,,,,
04/22/2016 12:00,460,,,,,,,,,,,,,,,,,
04/22/2016 13:00,443,,,,,,,,,,,,,,,,,
04/22/2016 14:00,433,,,,,,,,,,,,,,,,,
04/22/2016 15:00,430,,,,,,,,,,,,,,,,,
04/22/2016 16:00,416,,,,,,,,,,,,,,,,,
04/22/2016 17:00,420,,,,,,,,,,,,,,,,,
04/22/2016 18:00,420,,,,,,,,,,,,,,,,,
04/22/2016 19:00,417,,,,,,,,,,,,,,,,,
04/22/2016 20:00,403,,,,,,,,,,,,,,,,,
04/22/2016 21:00,408,,,,,,,,,,,,,,,,,
04/22/2016 22:00,408,,,,,,,,,,,,,,,,,
04/22/2016 23:00,355,,,,,,,,,,,,,,,,,
04/23/2016 0:00,345,,,,,,,,,,,,,,,,,
04/23/2016 1:00,303,,,,,,,,,,,,,,,,,
04/23/2016 2:00,278,,,,,,,,,,,,,,,,,
04/23/2016 3:00,279,,,,,,,,,,,,,,,,,
04/23/2016 4:00,279,,,,,,,,,,,,,,,,,
04/23/2016 5:00,284,,,,,,,,,,,,,,,,,
04/23/2016 6:00,275,,,,,,,,,,,,,,,,,
04/23/2016 7:00,271,,,,,,,,,,,,,,,,,
04/23/2016 8:00,310,,,,,,,,,,,,,,,,,
04/23/2016 9:00,384,,,,,,,,,,,,,,,,,
04/23/2016 10:00,415,,,,,,,,,,,,,,,,,
04/23/2016 11:00,435,,,,,,,,,,,,,,,,,
04/23/2016 12:00,444,,,,,,,,,,,,,,,,,
04/23/2016 13:00,443,,,,,,,,,,,,,,,,,
04/23/2016 14:00,448,,,,,,,,,,,,,,,,,
04/23/2016 15:00,442,,,,,,,,,,,,,,,,,
04/23/2016 16:00,447,,,,,,,,,,,,,,,,,
04/23/2016 17:00,442,,,,,,,,,,,,,,,,,
04/23/2016 18:00,467,,,,,,,,,,,,,,,,,
04/23/2016 19:00,467,,,,,,,,,,,,,,,,,
04/23/2016 20:00,458,,,,,,,,,,,,,,,,,
04/23/2016 21:00,460,,,,,,,,,,,,,,,,,
04/23/2016 22:00,411,,,,,,,,,,,,,,,,,
04/23/2016 23:00,331,,,,,,,,,,,,,,,,,
04/24/2016 0:00,256,,,,,,,,,,,,,,,,,
04/24/2016 1:00,210,,,,,,,,,,,,,,,,,
04/24/2016 2:00,171,,,,,,,,,,,,,,,,,
04/24/2016 3:00,178,,,,,,,,,,,,,,,,,
04/24/2016 4:00,172,,,,,,,,,,,,,,,,,
04/24/2016 5:00,183,,,,,,,,,,,,,,,,,
04/24/2016 6:00,188,,,,,,,,,,,,,,,,,
04/24/2016 7:00,180,,,,,,,,,,,,,,,,,
04/24/2016 8:00,209,,,,,,,,,,,,,,,,,
04/24/2016 9:00,293,,,,,,,,,,,,,,,,,
04/24/2016 10:00,357,,,,,,,,,,,,,,,,,
04/24/2016 11:00,401,,,,,,,,,,,,,,,,,
04/24/2016 12:00,414,,,,,,,,,,,,,,,,,
04/24/2016 13:00,432,,,,,,,,,,,,,,,,,
04/24/2016 14:00,421,,,,,,,,,,,,,,,,,
04/24/2016 15:00,362,,,,,,,,,,,,,,,,,
04/24/2016 16:00,334,,,,,,,,,,,,,,,,,
04/24/2016 17:00,337,,,,,,,,,,,,,,,,,
04/24/2016 18:00,329,,,,,,,,,,,,,,,,,
04/24/2016 19:00,337,,,,,,,,,,,,,,,,,
04/24/2016 20:00,335,,,,,,,,,,,,,,,,,
04/24/2016 21:00,418,,,,,,,,,,,,,,,,,
04/24/2016 22:00,435,,,,,,,,,,,,,,,,,
04/24/2016 23:00,400,,,,,,,,,,,,,,,,,
04/25/2016 0:00,342,,,,,,,,,,,,,,,,,
04/25/2016 1:00,347,,,,,,,,,,,,,,,,,
04/25/2016 2:00,393,,,,,,,,,,,,,,,,,
04/25/2016 3:00,416,,,,,,,,,,,,,,,,,
04/25/2016 4:00,417,,,,,,,,,,,,,,,,,
04/25/2016 5:00,422,,,,,,,,,,,,,,,,,
04/25/2016 6:00,447,,,,,,,,,,,,,,,,,
04/25/2016 7:00,470,,,,,,,,,,,,,,,,,
04/25/2016 8:00,458,,,,,,,,,,,,,,,,,
04/25/2016 9:00,478,,,,,,,,,,,,,,,,,
04/25/2016 10:00,471,,,,,,,,,,,,,,,,,
04/25/2016 11:00,440,,,,,,,,,,,,,,,,,
04/25/2016 12:00,429,,,,,,,,,,,,,,,,,
04/25/2016 13:00,417,,,,,,,,,,,,,,,,,
04/25/2016 14:00,414,,,,,,,,,,,,,,,,,
04/25/2016 15:00,409,,,,,,,,,,,,,,,,,
04/25/2016 16:00,414,,,,,,,,,,,,,,,,,
04/25/2016 17:00,429,,,,,,,,,,,,,,,,,
04/25/2016 18:00,430,,,,,,,,,,,,,,,,,
04/25/2016 19:00,423,,,,,,,,,,,,,,,,,
04/25/2016 20:00,448,,,,,,,,,,,,,,,,,
04/25/2016 21:00,505,,,,,,,,,,,,,,,,,
04/25/2016 22:00,517,,,,,,,,,,,,,,,,,
04/25/2016 23:00,503,,,,,,,,,,,,,,,,,
04/26/2016 0:00,432,,,,,,,,,,,,,,,,,
04/26/2016 1:00,416,,,,,,,,,,,,,,,,,
04/26/2016 2:00,398,,,,,,,,,,,,,,,,,
04/26/2016 3:00,385,,,,,,,,,,,,,,,,,
04/26/2016 4:00,415,,,,,,,,,,,,,,,,,
04/26/2016 5:00,436,,,,,,,,,,,,,,,,,
04/26/2016 6:00,471,,,,,,,,,,,,,,,,,
04/26/2016 7:00,543,,,,,,,,,,,,,,,,,
04/26/2016 8:00,602,,,,,,,,,,,,,,,,,
04/26/2016 9:00,603,,,,,,,,,,,,,,,,,
04/26/2016 10:00,587,,,,,,,,,,,,,,,,,
04/26/2016 11:00,572,,,,,,,,,,,,,,,,,
04/26/2016 12:00,571,,,,,,,,,,,,,,,,,
04/26/2016 13:00,562,,,,,,,,,,,,,,,,,
04/26/2016 14:00,554,,,,,,,,,,,,,,,,,
04/26/2016 15:00,549,,,,,,,,,,,,,,,,,
04/26/2016 16:00,562,,,,,,,,,,,,,,,,,
04/26/2016 17:00,597,,,,,,,,,,,,,,,,,
04/26/2016 18:00,634,,,,,,,,,,,,,,,,,
04/26/2016 19:00,641,,,,,,,,,,,,,,,,,
04/26/2016 20:00,631,,,,,,,,,,,,,,,,,
04/26/2016 21:00,626,,,,,,,,,,,,,,,,,